CAPE
2298 2142 2267 2216 1997 1799 1786 1790 1882 1850 1751 2027 1776 1781 1754 1320 1342 1231 1241 1288 1208 933 964 1482 2122 1458 1077 928 718 745 586 708 648 662 717 778 785 760 934 896 1000 1145 1252 1584 1690 1612 1448 1512 1082 972 867 842 730 755 714 715 876 1112 1244 688 776 658 888 992 1124 1568 1171 881 1291 1305 1247 1115 632 946 1274 1107 1216 1227 1237 1317 1220 1073 1193 776 840
2138 2360 2134 2288 1983 2064 2099 2091 2065 2248 1711 1913 2066 2084 1797 1278 1703 1480 1245 1459 1392 1162 1260 1948 1171 764 920 939 546 371 473 479 232 276 256 664 716 790 836 915 1025 1013 1132 1492 1813 1760 1404 985 1279 1386 1210 1377 1493 1520 1330 1025 843 1002 1007 1072 1006 828 912 1059 987 769 684 699 1023 749 683 856 752 569 769 818 786 1032 1115 1072 786 921 828 962 1111
2286 2385 2398 2405 2275 2171 2185 2216 1820 2188 2121 1989 2293 2014 2072 1829 1826 1616 1573 1436 1460 1150 1536 1686 1184 1180 1212 804 614 574 527 499 322 320 340 462 830 713 951 968 818 770 1021 1296 1363 1489 1788 1520 1210 1158 1147 1233 1441 1484 1080 711 574 817 895 1112 880 854 837 1058 1121 831 402 346 533 692 416 561 599 745 581 660 843 877 665 615 657 635 354 1080 982
2331 2407 2404 2431 2478 2386 2374 2080 1757 1818 1904 2077 2177 2107 1816 1873 1783 1598 1498 1574 1204 1203 1204 1920 1622 1628 1199 1008 811 640 724 460 542 468 203 201 613 632 689 843 750 611 482 504 780 1131 1657 1724 1369 1310 1149 1023 698 810 922 800 816 950 946 970 664 907 744 853 1110 1223 594 942 470 251 416 788 501 784 824 754 859 634 687 201 1115 96 208 353 509
2242 2374 2453 2556 2466 2469 2312 2243 1863 1760 1851 1986 2108 2141 1780 1903 1956 1494 1219 999 933 1261 1284 1890 1901 1605 1341 1330 1129 697 524 519 285 260 231 19 83 361 588 737 604 519 438 386 328 574 638 840 1223 1415 1414 1494 1175 937 869 677 875 823 871 882 972 1106 884 1093 1235 1533 1370 934 989 179 206 327 183 506 481 364 817 882 586 542 337 284 201 558 402
2011 2023 2471 2653 2595 2252 2363 2419 2096 1819 1800 1566 1795 2247 1820 1923 1806 1240 1067 784 1082 1091 877 1474 1737 1751 1361 1142 732 802 933 846 421 57 65 169 0 30 378 651 561 438 407 318 194 396 395 219 479 301 1052 1497 1218 1068 871 1071 1214 1299 1367 1343 412 1323 869 832 940 1191 1017 992 1042 1352 1064 555 375 341 345 508 428 1204 365 216 91 61 9 58 44
1721 1853 2315 2517 2505 2298 2415 2593 2295 1801 1600 1456 1632 2376 2320 2055 1832 1438 957 907 1044 877 1350 1438 1486 1079 1124 854 906 970 1110 795 634 539 200 0 0 9 214 629 341 312 326 320 408 511 586 527 408 356 217 372 436 926 1118 1149 1025 904 1160 1020 1253 1381 1293 1052 973 972 1206 1021 899 839 945 724 877 606 710 389 351 118 25 23 1 1 0 0 0
1496 1191 1749 2318 2617 2596 2434 2760 2559 2261 1840 1361 1626 1928 2248 2158 1465 1440 1111 857 721 940 1663 1815 1333 1152 1040 882 875 819 762 632 670 426 111 6 0 0 91 306 324 295 151 275 350 391 322 402 392 424 218 68 55 94 394 701 981 954 1014 1216 1180 1395 1539 1185 981 1051 594 903 1310 831 667 1011 821 875 526 985 109 90 14 0 0 0 0 0 0
1148 1424 1923 1675 2650 2740 2482 2500 2444 2610 2327 1791 943 1337 1302 1111 1305 1171 1060 845 936 1124 1738 1647 1084 1199 1196 850 789 652 544 775 366 88 92 92 145 122 146 188 436 358 296 98 364 167 155 209 320 317 307 163 41 178 757 1163 1163 1337 985 1201 1325 1146 1458 1342 1212 1130 1078 854 930 853 827 978 712 610 849 557 671 39 0 3 5 0 0 0 0
1303 1125 1243 1941 2389 2830 2661 2572 2406 1823 1646 1302 1193 1059 876 812 936 568 903 772 962 1586 1899 1462 1456 1609 1546 1050 840 604 617 468 330 262 172 164 214 269 146 220 29 18 106 220 190 174 199 204 283 380 337 172 104 340 747 1216 1497 1414 1378 1339 1474 1384 1376 900 936 727 758 648 861 820 764 1181 550 730 523 430 489 91 26 8 1 0 0 0 0
1516 1256 1404 1609 1473 2306 2841 2218 2034 1714 1349 1684 918 1159 1320 934 1027 942 992 826 870 1542 1216 1796 1361 1647 1201 993 828 799 686 538 380 323 177 230 147 193 374 311 281 159 141 155 224 61 42 174 399 320 307 181 102 72 115 109 397 992 1370 1380 1521 1464 1199 899 469 420 692 895 711 873 905 746 1180 867 761 868 688 63 21 18 8 2 0 0 0
1546 1637 1480 1884 1580 1966 1670 1875 1965 1533 859 936 1060 1093 1229 1084 1038 718 772 565 775 1025 1215 1014 1214 1317 1131 1040 996 981 784 606 406 418 194 164 182 247 124 93 148 56 143 129 164 83 24 187 292 324 170 186 99 88 51 42 48 220 562 915 1068 1264 1331 979 454 663 806 730 901 609 774 584 804 742 853 985 485 681 136 52 2 4 0 0 0
1447 1310 1214 1580 1443 1810 1920 2080 1501 1150 996 1336 1277 1118 808 968 1099 900 679 698 686 805 1032 962 1046 1141 1083 864 900 1083 862 571 416 284 158 74 90 56 18 84 2 28 136 121 67 13 0 49 134 203 214 210 149 36 4 27 11 56 276 566 1031 889 1033 1142 1178 1113 957 1116 818 761 416 542 200 484 905 343 236 179 25 4 0 0 0 0 0
1110 1230 1476 1511 1430 1360 2063 1805 1778 1392 1619 1515 1231 1102 1021 967 881 783 626 671 714 1070 1007 882 898 994 1138 837 1056 1068 951 652 296 257 133 63 48 18 84 3 48 114 82 26 0 0 87 69 152 97 178 112 21 5 9 14 6 5 92 238 269 558 990 967 1136 1107 972 319 201 134 150 122 46 36 104 82 61 47 3 4 8 0 0 0 0
1106 1276 1445 1722 1415 1615 2118 1974 1691 1471 1626 1503 1044 1170 1037 1085 977 712 607 925 909 816 906 754 1005 1319 690 845 1174 1106 889 715 276 199 210 81 27 60 45 9 34 84 93 5 0 0 23 46 28 41 4 5 0 0 0 0 0 0 0 8 6 15 70 179 273 201 96 20 9 1 0 0 0 0 0 0 0 0 2 2 1 0 0 0 0
1110 1660 2025 2039 1912 1493 1180 1641 1559 1371 1502 1359 1382 1334 1411 1245 968 755 868 1031 1040 899 883 1078 1394 1356 640 1128 1030 1183 875 592 265 140 251 204 82 46 16 10 15 35 1 0 0 16 37 5 0 0 0 0 0 0 0 0 0 0 0 0 0 0 0 4 22 13 0 0 0 0 0 0 0 0 0 0 0 0 0 0 0 0 0 0 0
1365 2006 2139 2097 1945 1530 1726 1827 1463 1438 1412 1340 1492 1606 1486 1132 855 800 791 839 802 848 802 1068 1257 1500 1272 1254 1375 1127 748 508 211 215 92 62 45 6 0 1 28 2 0 0 0 0 0 0 0 0 0 0 0 0 0 0 0 0 0 0 0 0 0 0 0 0 0 0 0 0 0 0 0 0 0 0 0 0 0 0 0 0 3 0 0
1489 1760 1738 1884 1832 1688 1636 1683 1546 1418 1294 1383 1604 1551 1445 1304 965 732 658 625 562 607 780 950 1107 940 1163 1087 1061 1226 709 679 488 268 68 39 13 0 0 0 0 0 0 0 0 0 0 0 0 0 0 0 0 0 0 0 0 0 0 0 0 0 0 0 0 0 0 0 0 0 0 0 0 0 0 0 0 0 0 0 0 0 3 13 3
1266 1302 1472 1456 1330 1329 1358 1427 1473 1368 1249 1368 1410 1494 1749 1563 1455 1124 934 920 775 642 602 589 622 807 811 850 711 1190 698 883 838 528 343 58 0 0 0 0 0 0 0 0 0 0 0 0 0 0 0 0 0 0 0 0 0 0 0 0 0 0 0 0 0 0 0 0 0 0 0 0 0 0 0 0 0 0 0 0 0 0 0 10 12
827 988 998 1172 1078 1084 1180 1275 1235 1189 1206 1188 1286 1529 1473 1265 1107 903 914 945 1064 1008 779 741 702 939 497 758 748 920 885 1067 968 466 378 52 0 0 0 0 0 0 0 0 0 0 0 0 0 0 0 0 0 0 0 0 0 0 0 0 0 0 0 0 0 0 0 0 0 0 0 0 0 0 0 0 0 0 0 0 0 0 0 1 0
820 956 986 877 850 829 964 1041 1100 918 749 1076 1298 1160 1218 1159 1122 914 1395 1260 1040 901 798 642 609 916 705 614 726 572 705 801 774 642 462 58 0 0 0 0 0 0 0 0 0 0 0 0 0 0 0 0 0 0 0 0 0 0 0 0 0 0 0 0 0 0 0 0 0 0 0 0 0 0 0 0 0 0 0 0 0 0 0 0 0
699 692 847 969 833 716 850 961 930 823 1020 382 1063 1305 1110 1013 887 1181 1303 1283 1347 1188 1208 1004 880 1078 1057 1047 866 624 607 876 672 796 573 97 0 0 1 0 0 0 0 0 0 0 0 0 0 0 0 0 0 0 0 0 0 0 0 0 0 0 0 0 0 0 0 0 0 0 0 0 0 0 0 0 0 0 0 0 0 0 0 0 0
755 752 754 823 944 916 685 700 743 602 737 772 1009 1191 1034 890 908 1289 1412 1386 1384 1231 1231 1316 1282 1216 1279 1184 919 805 744 842 781 773 705 178 0 10 28 9 61 0 0 0 0 0 0 0 0 0 0 0 0 0 0 0 0 0 0 0 0 0 0 0 0 0 0 0 0 0 0 0 0 0 0 0 0 0 0 0 0 0 0 0 0
666 671 773 559 783 764 792 810 769 936 1014 949 917 1069 1134 1092 1329 1497 1609 1673 1363 1306 1368 1414 1413 1345 1188 1124 1174 1039 882 960 984 764 1107 573 184 187 40 95 63 64 0 0 0 0 0 0 0 0 0 0 0 0 0 0 0 0 0 0 0 0 0 0 0 0 0 0 0 0 0 0 0 0 0 0 0 0 0 0 0 0 0 0 0
515 630 473 644 680 644 572 493 692 616 726 695 769 1043 915 924 961 981 1352 1322 1236 1174 1186 1115 1177 1280 1387 1299 1212 1093 1042 987 957 1034 1292 852 375 297 158 1 46 93 166 36 0 0 0 0 0 0 0 0 0 0 0 0 0 0 0 0 0 0 0 0 0 0 0 0 0 0 0 0 0 0 0 0 0 0 2 1 2 0 0 0 0
616 590 543 526 570 458 492 634 506 556 546 623 614 524 786 1020 1245 1193 1118 1253 1146 1159 1090 1071 1136 1267 1221 1065 1142 1181 1093 966 895 778 727 1095 815 276 327 270 113 2 44 175 38 0 0 0 0 0 0 0 0 0 0 0 0 0 0 0 0 0 0 0 2 0 0 0 0 6 2 0 0 15 0 0 0 0 0 0 3 1 3 0 2
475 526 532 486 350 461 476 376 279 461 718 689 523 865 858 1044 1143 1201 1200 1216 1262 1295 1243 1255 1251 1288 1148 1168 1062 1132 1021 987 837 841 933 926 1062 725 439 263 266 242 19 7 36 37 2 0 0 0 0 0 0 0 0 0 0 0 0 0 7 8 0 7 4 3 0 0 8 19 39 4 0 30 53 44 9 0 0 0 0 0 0 0 0
266 257 345 239 217 205 158 276 267 228 120 334 774 711 745 680 913 923 1098 1163 1109 1193 1133 1289 1242 1302 1410 1250 1240 1366 1224 1176 1241 1082 945 1150 1130 1006 777 407 315 339 274 120 8 35 62 52 8 0 0 0 0 0 0 0 0 0 9 40 55 92 103 118 138 48 34 28 17 12 38 72 24 22 79 35 6 12 1 0 0 0 0 0 0
64 117 134 74 61 193 264 193 173 124 139 172 196 228 328 673 782 859 941 1000 975 1032 1119 1154 1096 1230 1369 1365 1542 1574 1336 1240 1248 1098 1236 938 1081 1013 906 682 430 221 420 304 145 34 108 92 27 22 8 9 19 2 1 10 2 19 137 183 226 223 261 277 302 295 410 370 227 220 186 197 155 32 1 60 664 8 327 5 6 0 0 0 0
3 3 5 16 13 10 0 6 8 3 6 14 10 49 152 242 339 328 396 585 682 778 716 863 982 1100 1151 1048 1162 1388 1113 1240 1276 1396 810 1115 1065 1195 1060 929 664 413 335 27 12 206 148 148 84 69 98 202 266 312 691 70 133 388 592 598 656 632 567 722 699 633 745 575 676 487 568 300 24 0 0 0 0 0 0 0 13 8 0 0 0
40 12 0 1 2 3 4 2 2 3 3 4 0 0 0 0 9 120 377 699 830 774 679 703 776 860 977 1002 1051 1071 1193 1070 1268 1268 925 975 672 964 1040 1122 1073 933 589 576 124 666 562 452 331 421 450 809 803 723 517 466 528 561 773 830 915 995 858 859 941 969 938 903 729 675 664 413 166 46 33 122 0 0 0 0 0 0 7 68 0
97 45 18 0 0 0 6 14 0 1 0 0 0 0 0 0 0 0 0 7 179 376 498 653 694 1014 1023 1065 1058 1125 1084 1108 995 1069 960 879 1022 1005 1017 1135 1243 1278 992 864 821 766 799 827 797 725 822 1234 1458 1048 796 552 604 666 852 1120 1135 978 1114 1108 1002 1050 1038 1038 687 308 109 200 336 328 162 1 23 0 0 0 0 0 0 0 0
100 89 68 40 30 20 0 0 0 0 0 0 0 0 0 0 0 0 0 0 0 0 2 38 135 293 436 587 716 1073 1235 1195 1399 1161 980 1192 970 1275 1271 1186 880 1264 1014 842 1138 820 883 1051 1214 1006 986 1209 1460 810 687 516 562 645 628 792 806 996 956 935 872 842 903 1123 824 533 556 523 469 156 244 146 58 134 9 0 0 0 0 0 0
210 164 109 78 64 53 38 10 2 0 0 0 0 0 0 0 0 0 0 0 0 0 0 0 0 0 0 27 124 320 412 716 1064 1336 1341 1358 1346 1297 1470 1422 1381 911 1032 675 701 858 1053 769 625 954 869 850 647 798 338 2 8 138 0 100 573 747 796 671 676 707 1074 1052 1112 1175 724 580 400 225 220 331 200 135 162 179 168 137 110 10 0
343 223 188 144 115 108 96 68 42 14 0 0 0 0 0 0 0 0 0 0 0 0 0 0 0 0 0 0 0 0 59 144 265 464 816 1130 1337 1440 1468 1385 1308 1333 920 888 648 746 972 836 985 696 596 436 568 604 786 587 196 11 6 8 8 714 823 919 1100 1033 1009 846 704 787 524 336 561 234 192 283 127 126 146 129 59 0 0 0 0
161 191 231 199 98 136 124 93 46 39 0 0 0 0 0 0 0 0 0 0 0 0 0 0 0 0 0 0 0 0 0 0 63 281 329 368 586 960 1449 1466 1429 1370 1287 1191 914 742 607 721 705 628 609 494 322 446 620 664 498 245 40 20 61 834 867 828 327 614 645 627 551 579 375 343 292 335 226 167 164 107 91 0 0 0 0 0 0
122 141 119 82 65 37 0 0 0 0 0 0 0 0 0 0 0 0 0 0 0 0 0 0 0 0 0 0 0 0 0 0 0 0 20 162 327 527 794 1195 1251 1241 1165 1131 992 815 697 571 458 736 474 561 574 503 570 587 491 371 309 91 36 792 544 296 379 30 44 69 46 3 148 139 397 131 143 103 142 120 106 0 0 0 0 0 0
4 4 9 3 0 0 0 0 0 0 0 0 0 0 0 0 0 0 0 0 0 0 0 0 0 0 0 0 0 0 0 0 0 0 0 7 92 250 400 635 908 1044 1034 948 932 906 1016 1074 982 601 463 383 186 197 529 525 416 327 229 118 59 20 470 117 15 22 40 17 18 0 0 168 353 100 90 174 157 70 4 0 0 0 0 0 0
0 0 0 0 0 0 0 0 2 0 1 0 0 0 0 0 0 0 0 0 0 0 0 0 0 0 0 0 0 0 0 0 0 0 1 25 85 128 156 322 476 487 466 755 740 894 1110 987 1172 836 531 460 468 457 573 503 341 211 145 239 193 39 44 26 32 20 30 15 0 0 0 49 1 4 73 79 0 0 10 1 0 1 0 0 0
0 0 0 0 0 0 0 0 0 1 0 0 0 0 0 1 1 0 0 0 0 0 0 0 0 0 0 0 0 0 0 0 0 0 0 0 7 34 110 354 443 400 335 370 580 781 969 999 972 884 846 585 382 356 583 475 200 131 142 219 124 64 168 37 42 0 0 0 0 0 0 0 0 0 0 0 0 0 0 0 0 0 0 1 0
0 0 0 0 0 0 0 0 0 0 0 0 0 0 0 0 0 0 0 0 0 0 0 0 0 0 0 0 0 0 0 0 0 0 0 0 0 2 18 93 314 248 160 78 246 649 785 917 1044 1152 1137 984 350 394 601 484 262 178 258 150 252 51 137 18 11 5 1 0 0 0 0 0 0 0 0 0 0 0 0 0 0 0 0 0 0
0 0 0 0 0 0 0 0 0 0 0 0 0 0 0 0 0 0 0 0 0 0 0 0 0 0 0 0 0 0 0 0 0 0 0 0 5 17 32 55 98 245 159 85 63 419 542 797 1016 887 956 828 662 515 384 204 123 307 232 17 2 15 21 15 0 4 0 0 0 0 0 0 0 0 0 0 0 0 0 0 0 0 0 0 0
0 0 0 0 0 0 0 0 0 0 0 0 0 0 0 0 0 0 0 0 0 0 0 0 0 0 0 0 0 0 0 0 0 0 0 0 2 11 24 45 111 254 241 109 95 155 515 651 633 615 834 709 536 390 243 136 364 192 177 190 0 218 0 257 0 0 0 0 0 0 0 0 0 0 0 0 0 0 0 0 0 0 0 0 0
0 0 0 0 0 0 0 0 0 0 0 0 0 0 0 0 0 0 0 0 0 0 0 0 0 0 0 0 0 0 0 0 0 0 0 0 0 0 2 12 75 139 159 138 145 263 431 656 307 547 702 757 364 356 357 317 238 231 277 210 0 0 19 2 42 5 0 0 0 0 0 0 0 0 0 0 0 0 0 0 0 0 0 0 0
0 0 0 0 0 0 0 0 0 0 0 0 0 0 0 0 0 0 0 0 0 0 0 0 0 0 0 0 0 0 0 0 0 0 0 0 0 0 0 3 31 90 120 143 176 150 259 311 200 289 267 340 234 356 155 193 210 230 138 0 0 0 0 0 236 25 0 0 0 0 0 0 0 0 0 0 0 0 0 0 0 0 0 0 0
0 0 0 0 0 0 0 0 0 0 0 0 0 0 0 0 0 0 0 0 0 0 0 0 0 0 0 0 0 0 0 0 0 0 0 0 0 0 0 0 0 23 78 164 106 100 87 222 290 65 178 126 106 76 1 178 243 206 102 52 0 4 14 0 0 0 0 0 0 0 0 0 0 0 0 0 0 0 0 0 0 0 0 0 0
0 0 0 0 0 0 0 0 0 0 0 0 0 0 0 0 0 0 1 0 0 0 0 0 0 0 0 0 0 0 0 0 0 0 0 0 0 0 0 0 0 0 23 87 210 202 306 241 88 78 46 41 239 104 170 265 275 233 190 150 109 79 47 0 0 0 0 0 0 0 0 0 0 0 0 0 0 0 0 0 0 0 0 0 0
0 0 0 0 0 0 0 0 0 0 0 0 0 0 0 1 2 2 0 0 2 1 2 0 0 0 0 0 0 0 0 0 0 0 0 0 0 0 0 0 0 0 1 64 193 85 69 120 25 55 46 27 98 85 28 235 266 270 260 212 181 155 119 69 0 0 0 0 0 0 0 0 0 0 0 0 0 0 0 0 0 0 0 0 0
0 0 0 0 0 0 0 0 0 0 0 1 2 2 0 2 3 3 3 3 2 1 0 2 4 2 1 0 0 0 0 0 0 0 0 0 0 0 0 0 4 2 5 33 223 180 218 44 54 266 34 9 14 32 116 168 246 248 231 238 221 203 161 128 83 0 0 0 0 0 0 0 0 0 0 0 0 0 0 0 0 0 0 0 0
0 0 0 0 0 0 1 1 0 1 1 1 2 2 3 1 2 4 2 2 5 0 2 4 0 2 3 2 4 1 1 0 0 0 0 0 0 0 0 0 7 91 0 0 0 23 92 268 42 35 142 272 170 49 0 0 106 163 192 199 161 137 120 116 111 77 38 0 0 0 0 0 0 0 0 0 0 0 0 0 0 0 0 0 0
0 0 0 0 1 2 2 0 1 1 4 3 3 4 4 4 3 3 2 1 0 0 0 3 0 0 1 0 2 0 4 1 0 0 0 1 1 0 0 0 0 0 0 0 0 0 9 31 121 6 2 4 2 0 0 0 26 36 78 87 50 48 0 0 84 81 23 0 0 0 0 0 0 0 0 0 0 0 0 0 0 0 0 0 0
Wind_Speed
24 21 19 18 17 17 16 19 18 20 24 26 22 25 26 26 25 24 20 20 23 23 12 5 12 15 16 17 19 18 20 19 18 19 19 20 19 20 21 20 19 17 15 15 13 14 15 15 18 19 21 18 16 16 17 13 8 5 9 8 9 6 6 6 9 15 14 15 12 12 16 14 19 16 12 14 15 16 14 14 14 17 18 21 19
26 23 20 19 18 18 17 18 21 23 26 21 22 24 26 28 26 25 21 23 26 25 11 11 14 16 17 18 21 21 21 20 21 21 21 21 20 20 20 20 20 17 16 16 15 14 18 14 17 20 20 19 19 20 16 14 11 9 8 9 9 5 8 8 10 16 11 12 14 12 13 11 16 16 15 12 14 14 16 14 12 17 18 18 18
26 24 22 20 20 20 18 19 24 26 22 19 18 23 26 27 24 24 24 24 26 26 13 12 15 19 19 21 21 22 22 23 24 24 23 23 22 21 20 20 20 20 18 16 15 16 16 17 18 18 18 20 20 20 18 16 13 9 8 8 7 6 9 10 14 17 17 14 16 13 11 12 13 13 11 11 12 13 13 15 15 14 16 23 20
27 26 22 20 20 21 20 21 26 28 22 19 21 23 26 25 24 24 25 26 27 23 13 15 19 20 24 23 24 23 24 25 26 25 25 24 22 21 21 20 19 19 18 17 17 16 16 16 17 17 17 19 19 19 18 18 13 11 11 9 7 9 9 12 16 16 20 16 17 11 11 11 13 11 10 10 12 11 8 14 13 nan 17 20 20
25 24 22 19 20 21 21 23 27 27 25 21 20 23 24 24 24 25 25 27 25 20 9 18 21 23 24 25 26 26 23 23 24 24 24 nan nan 21 21 19 20 20 19 17 17 16 16 16 14 15 14 15 18 21 19 19 18 16 14 11 10 9 11 14 14 18 18 17 19 17 15 13 10 13 10 12 15 12 11 16 14 13 17 19 16
22 20 18 18 19 21 22 21 24 26 25 21 17 23 25 26 27 25 24 27 24 19 11 19 20 24 24 24 23 21 22 21 22 nan nan 19 nan nan 21 19 19 18 18 18 19 17 16 15 14 13 14 13 14 17 18 20 19 16 16 16 13 12 12 11 14 17 15 17 17 15 14 16 16 20 15 14 10 9 15 15 nan nan nan nan nan
17 16 15 17 17 19 21 19 20 25 26 21 19 21 25 28 29 26 26 27 27 19 18 20 23 23 23 23 22 21 20 20 21 19 19 nan nan nan 20 17 17 17 16 17 18 18 17 17 17 14 15 15 15 14 17 18 17 18 19 17 19 15 13 12 13 16 16 17 17 18 16 15 18 21 18 21 18 17 nan nan nan nan nan nan nan
15 15 10 14 15 16 19 19 18 21 25 24 24 22 25 29 30 27 28 29 27 17 22 20 22 23 23 23 21 20 20 20 19 18 18 nan nan nan nan 17 16 16 14 16 17 18 18 18 18 19 16 nan nan nan 18 16 17 19 20 19 21 16 16 13 16 15 17 17 18 21 18 14 17 19 20 19 19 nan nan nan nan nan nan nan nan
17 14 10 11 14 15 17 18 19 21 24 26 28 25 27 32 31 27 28 28 23 18 24 19 20 21 22 21 19 20 20 19 19 nan nan nan 16 15 17 18 17 16 15 nan 16 18 18 20 19 21 22 22 nan 23 21 20 20 21 20 19 18 18 18 16 15 15 13 20 17 18 17 17 17 22 21 22 16 nan nan nan nan nan nan nan nan
24 14 7 9 16 16 17 20 24 31 34 37 35 34 30 34 29 26 26 20 21 15 23 18 22 19 20 20 20 20 20 19 19 19 17 15 17 17 18 18 nan nan 18 19 19 21 21 20 22 23 24 25 25 26 23 22 21 22 22 21 21 19 20 20 18 17 18 15 17 15 20 17 18 22 23 17 14 nan nan nan nan nan nan nan nan
16 11 13 11 19 20 22 28 33 29 24 26 29 28 22 27 27 24 21 19 16 21 20 22 19 17 21 19 20 21 21 20 20 19 18 18 20 20 19 21 21 22 22 22 21 nan nan 23 23 23 24 25 26 nan 25 23 22 22 22 23 22 20 18 23 19 18 18 12 14 18 22 16 17 16 21 19 19 nan nan nan nan nan nan nan nan
13 14 15 14 26 24 28 26 25 26 28 30 28 30 29 32 33 29 26 27 30 29 22 18 18 17 19 18 20 20 20 20 20 20 21 22 22 22 23 nan 23 nan 24 25 24 nan nan 24 24 23 24 24 nan nan nan nan nan 23 23 22 21 20 19 20 22 16 19 17 22 22 22 19 16 17 18 24 21 21 26 nan nan nan nan nan nan
15 16 15 23 26 25 20 23 28 29 31 32 29 30 30 32 34 32 31 31 34 34 29 20 16 17 19 19 21 19 20 22 22 22 23 nan nan nan nan nan nan nan 26 27 nan nan nan nan 24 23 22 22 22 nan nan nan nan nan 24 23 21 19 19 18 17 19 18 19 21 21 16 20 20 25 19 22 25 26 nan nan nan nan nan nan nan
18 15 17 28 27 22 18 23 30 29 32 32 30 28 27 30 33 36 36 36 37 34 32 30 15 13 21 21 19 19 22 22 22 24 23 nan nan nan nan nan nan 26 nan nan nan nan nan nan 22 nan 21 21 nan nan nan nan nan nan nan 24 22 19 18 17 18 18 17 19 19 20 20 21 nan nan 24 nan nan nan nan nan nan nan nan nan nan
16 13 21 28 24 23 19 23 26 28 31 30 29 27 29 30 30 34 36 37 38 35 31 29 23 16 20 19 20 20 22 22 23 24 23 nan nan nan nan nan nan nan nan nan nan nan nan nan nan nan nan nan nan nan nan nan nan nan nan nan nan nan nan 16 16 17 nan nan nan nan nan nan nan nan nan nan nan nan nan nan nan nan nan nan nan
18 21 24 25 27 31 21 20 27 30 31 30 31 30 31 33 32 30 32 35 40 40 34 29 26 23 18 18 20 22 22 23 25 24 23 22 nan nan nan nan nan nan nan nan nan nan nan nan nan nan nan nan nan nan nan nan nan nan nan nan nan nan nan nan nan nan nan nan nan nan nan nan nan nan nan nan nan nan nan nan nan nan nan nan nan
26 26 27 31 32 27 24 27 31 32 32 31 31 31 34 36 36 32 28 32 40 41 37 30 28 26 21 20 22 22 23 25 25 25 nan nan nan nan nan nan nan nan nan nan nan nan nan nan nan nan nan nan nan nan nan nan nan nan nan nan nan nan nan nan nan nan nan nan nan nan nan nan nan nan nan nan nan nan nan nan nan nan nan nan nan
31 30 28 29 30 30 29 31 31 35 35 34 33 31 31 36 37 34 29 33 38 40 38 33 29 29 24 21 20 22 22 25 27 26 nan nan nan nan nan nan nan nan nan nan nan nan nan nan nan nan nan nan nan nan nan nan nan nan nan nan nan nan nan nan nan nan nan nan nan nan nan nan nan nan nan nan nan nan nan nan nan nan nan nan nan
39 38 37 35 35 35 35 36 38 39 39 38 36 32 33 37 37 30 27 32 37 37 37 34 33 32 31 24 18 22 21 23 25 23 22 nan nan nan nan nan nan nan nan nan nan nan nan nan nan nan nan nan nan nan nan nan nan nan nan nan nan nan nan nan nan nan nan nan nan nan nan nan nan nan nan nan nan nan nan nan nan nan nan nan nan
39 37 37 37 37 36 37 40 41 41 42 43 39 37 38 38 37 33 31 33 37 38 36 36 34 37 33 27 15 15 20 21 23 22 21 nan nan nan nan nan nan nan nan nan nan nan nan nan nan nan nan nan nan nan nan nan nan nan nan nan nan nan nan nan nan nan nan nan nan nan nan nan nan nan nan nan nan nan nan nan nan nan nan nan nan
41 40 39 39 40 40 41 42 44 46 47 46 45 44 40 36 33 31 32 36 38 36 36 34 29 29 32 26 15 9 17 19 21 21 20 nan nan nan nan nan nan nan nan nan nan nan nan nan nan nan nan nan nan nan nan nan nan nan nan nan nan nan nan nan nan nan nan nan nan nan nan nan nan nan nan nan nan nan nan nan nan nan nan nan nan
41 41 40 41 43 44 46 45 42 46 48 46 45 47 45 40 38 35 38 39 39 38 37 38 34 32 31 25 18 19 19 19 20 20 20 nan nan nan nan nan nan nan nan nan nan nan nan nan nan nan nan nan nan nan nan nan nan nan nan nan nan nan nan nan nan nan nan nan nan nan nan nan nan nan nan nan nan nan nan nan nan nan nan nan nan
44 44 42 41 40 41 43 44 43 46 48 44 39 40 42 43 44 43 44 41 38 38 38 40 43 40 32 27 24 22 20 20 21 20 21 24 nan nan nan nan nan nan nan nan nan nan nan nan nan nan nan nan nan nan nan nan nan nan nan nan nan nan nan nan nan nan nan nan nan nan nan nan nan nan nan nan nan nan nan nan nan nan nan nan nan
42 42 42 41 41 41 42 42 43 46 46 44 40 39 40 40 41 39 41 37 37 37 36 39 42 39 33 28 23 20 18 20 20 20 22 22 22 21 nan nan nan nan nan nan nan nan nan nan nan nan nan nan nan nan nan nan nan nan nan nan nan nan nan nan nan nan nan nan nan nan nan nan nan nan nan nan nan nan nan nan nan nan nan nan nan
40 40 38 38 38 38 37 40 40 43 45 44 41 39 39 37 38 36 35 36 38 37 36 36 36 35 31 25 20 18 18 18 19 21 22 21 20 20 19 nan nan nan 16 nan nan nan nan nan nan nan nan nan nan nan nan nan nan nan nan nan nan nan nan nan nan nan nan nan nan nan nan nan nan nan nan nan nan nan nan nan nan nan nan nan nan
39 37 36 35 36 35 34 37 37 39 40 39 37 37 35 37 37 34 35 36 37 35 35 35 33 31 27 22 20 19 18 18 19 20 22 20 19 18 19 18 19 nan nan 18 nan nan nan nan nan nan nan nan nan nan nan nan nan nan nan nan nan nan nan nan nan nan nan nan nan nan nan nan nan nan nan nan nan nan nan nan nan nan nan nan nan
35 34 34 35 35 35 36 36 35 37 34 34 33 33 33 33 33 32 32 33 33 32 32 32 29 25 23 19 19 19 19 19 19 19 20 21 20 18 18 18 20 19 nan nan nan nan nan nan nan nan nan nan nan nan nan nan nan nan nan nan nan nan nan nan nan nan nan nan nan nan nan nan nan nan nan nan nan nan nan nan nan nan nan nan nan
33 34 34 35 37 37 37 37 38 38 39 35 36 34 33 33 32 30 30 29 29 30 30 30 28 25 23 21 20 20 19 18 18 18 18 20 20 19 18 19 20 21 21 20 nan nan nan nan nan nan nan nan nan nan nan nan nan nan nan nan nan nan 27 28 28 nan nan nan nan nan nan nan nan nan nan nan nan nan nan nan nan nan nan nan nan
nan 35 36 nan nan 36 36 38 38 39 39 38 36 34 32 32 31 30 29 29 29 29 29 28 28 27 27 25 24 22 21 19 18 19 18 19 17 18 18 18 20 21 24 22 23 nan 21 nan nan nan nan nan nan nan nan nan nan nan 28 27 27 27 27 28 28 27 28 29 28 28 28 29 31 nan nan nan 36 nan 30 nan nan nan nan nan nan
nan nan nan nan nan nan nan nan nan nan nan nan nan nan 33 32 32 31 31 32 31 30 30 29 29 29 28 28 27 25 23 23 22 23 21 18 18 19 19 19 20 20 24 nan nan 24 24 25 nan nan nan 29 30 30 35 nan 33 36 33 31 29 28 28 27 27 27 27 26 27 27 28 29 nan nan nan nan nan nan nan nan nan nan nan nan nan
nan nan nan nan nan nan nan nan nan nan nan nan nan nan nan nan nan 34 34 33 32 32 32 31 31 30 30 29 30 29 28 27 28 25 25 25 23 21 22 22 22 23 25 26 25 25 26 27 27 30 31 33 33 37 45 44 41 39 39 36 33 30 28 27 26 25 25 29 28 30 36 40 35 nan nan 34 nan nan nan nan nan nan nan nan nan
nan nan nan nan nan nan nan nan nan nan nan nan nan nan nan nan nan nan nan nan 35 35 35 34 33 32 32 31 32 31 30 31 30 30 29 29 30 29 28 27 27 29 32 29 27 26 27 29 30 31 33 36 36 45 46 47 43 40 38 39 38 35 31 29 28 27 26 27 33 35 31 32 30 30 28 nan nan nan nan nan nan nan nan nan nan
nan nan nan nan nan nan nan nan nan nan nan nan nan nan nan nan nan nan nan nan nan nan nan nan 37 36 36 35 34 34 34 33 33 32 33 31 31 32 31 32 29 30 34 30 32 31 29 32 34 32 35 36 39 50 46 45 43 41 38 37 41 39 37 33 31 29 29 31 33 34 36 37 34 32 30 33 nan 39 nan nan nan nan nan nan nan
47 47 48 nan nan nan nan nan nan nan nan nan nan nan nan nan nan nan nan nan nan nan nan nan nan nan nan nan 39 39 37 37 36 35 35 35 34 34 34 34 34 33 33 34 30 31 32 33 34 33 34 36 38 48 48 nan nan 39 nan nan 39 42 40 38 35 34 34 34 36 39 42 39 38 37 31 31 36 38 38 39 40 39 41 nan nan
50 51 51 51 50 50 nan nan nan nan nan nan nan nan nan nan nan nan nan nan nan nan nan nan nan nan nan nan nan nan nan 42 40 39 39 38 37 37 37 37 36 36 35 35 36 31 32 35 35 37 37 36 41 43 39 41 39 nan nan nan nan 42 42 41 41 39 37 36 37 41 42 40 39 36 34 31 39 43 42 41 nan nan nan nan nan
50 51 51 50 nan 49 49 nan nan nan nan nan nan nan nan nan nan nan nan nan nan nan nan nan nan nan nan nan nan nan nan nan nan 41 40 39 40 39 38 39 38 37 38 40 38 38 37 33 30 34 37 37 38 42 42 43 43 41 nan nan nan 42 44 46 43 43 40 38 37 38 40 38 39 35 47 47 50 48 nan nan nan nan nan nan nan
50 50 51 nan nan nan nan nan nan nan nan nan nan nan nan nan nan nan nan nan nan nan nan nan nan nan nan nan nan nan nan nan nan nan nan 42 43 44 44 43 41 40 38 39 39 39 39 38 37 40 39 40 38 42 44 45 46 47 46 nan nan 43 45 44 43 nan nan nan nan nan 39 38 42 46 54 57 54 48 45 nan nan nan nan nan nan
nan nan nan nan nan nan nan nan nan nan nan nan nan nan nan nan nan nan nan nan nan nan nan nan nan nan nan nan nan nan nan nan nan nan nan nan nan 46 45 46 44 43 42 40 39 38 38 38 43 46 43 43 43 48 48 50 50 49 46 43 nan nan 46 49 nan nan nan nan nan nan nan 42 47 50 nan 52 48 nan nan nan nan nan nan nan nan
nan nan nan nan nan nan nan nan nan nan nan nan nan nan nan nan nan nan nan nan nan nan nan nan nan nan nan nan nan nan nan nan nan nan nan nan nan 47 46 46 45 46 45 44 44 42 41 41 45 48 48 52 48 55 54 55 50 47 44 43 44 nan nan nan nan nan nan nan nan nan nan nan nan nan nan nan nan nan nan nan nan nan nan nan nan
nan nan nan nan nan nan nan nan nan nan nan nan nan nan nan nan nan nan nan nan nan nan nan nan nan nan nan nan nan nan nan nan nan nan nan nan nan nan 48 47 47 46 46 47 48 47 46 46 47 50 51 52 53 55 53 52 49 46 44 44 49 nan 52 nan nan nan nan nan nan nan nan nan nan nan nan nan nan nan nan nan nan nan nan nan nan
nan nan nan nan nan nan nan nan nan nan nan nan nan nan nan nan nan nan nan nan nan nan nan nan nan nan nan nan nan nan nan nan nan nan nan nan nan nan nan nan 49 48 47 nan 48 50 50 50 50 50 50 53 55 54 55 52 49 46 43 44 49 nan 49 nan nan nan nan nan nan nan nan nan nan nan nan nan nan nan nan nan nan nan nan nan nan
nan nan nan nan nan nan nan nan nan nan nan nan nan nan nan nan nan nan nan nan nan nan nan nan nan nan nan nan nan nan nan nan nan nan nan nan nan nan nan nan nan 51 49 nan nan 50 51 51 52 53 53 55 57 62 59 55 49 44 46 nan nan nan nan nan nan nan nan nan nan nan nan nan nan nan nan nan nan nan nan nan nan nan nan nan nan
nan nan nan nan nan nan nan nan nan nan nan nan nan nan nan nan nan nan nan nan nan nan nan nan nan nan nan nan nan nan nan nan nan nan nan nan nan nan nan nan 56 54 53 52 nan 53 52 52 50 52 55 55 56 59 60 56 51 48 47 41 nan 46 nan 45 nan nan nan nan nan nan nan nan nan nan nan nan nan nan nan nan nan nan nan nan nan
nan nan nan nan nan nan nan nan nan nan nan nan nan nan nan nan nan nan nan nan nan nan nan nan nan nan nan nan nan nan nan nan nan nan nan nan nan nan nan nan nan 57 56 56 55 55 54 54 52 47 50 52 55 57 58 58 56 54 49 47 nan nan nan nan nan nan nan nan nan nan nan nan nan nan nan nan nan nan nan nan nan nan nan nan nan
nan nan nan nan nan nan nan nan nan nan nan nan nan nan nan nan nan nan nan nan nan nan nan nan nan nan nan nan nan nan nan nan nan nan nan nan nan nan nan nan nan nan 56 54 53 51 52 55 51 46 46 50 53 55 55 61 63 60 60 nan nan nan nan nan 48 nan nan nan nan nan nan nan nan nan nan nan nan nan nan nan nan nan nan nan nan
nan nan nan nan nan nan nan nan nan nan nan nan nan nan nan nan nan nan nan nan nan nan nan nan nan nan nan nan nan nan nan nan nan nan nan nan nan nan nan nan nan nan nan 54 49 46 nan 49 53 nan 44 52 51 nan nan 58 59 59 63 nan nan nan nan nan nan nan nan nan nan nan nan nan nan nan nan nan nan nan nan nan nan nan nan nan nan
nan nan nan nan nan nan nan nan nan nan nan nan nan nan nan nan nan nan nan nan nan nan nan nan nan nan nan nan nan nan nan nan nan nan nan nan nan nan nan nan nan nan nan nan 52 47 47 46 nan nan nan nan 50 53 59 59 57 57 57 60 62 nan nan nan nan nan nan nan nan nan nan nan nan nan nan nan nan nan nan nan nan nan nan nan nan
nan nan nan nan nan nan nan nan nan nan nan nan nan nan nan nan nan nan nan nan nan nan nan nan nan nan nan nan nan nan nan nan nan nan nan nan nan nan nan nan nan nan nan nan 56 nan nan 41 nan nan nan nan nan nan nan 56 55 56 55 55 58 58 57 nan nan nan nan nan nan nan nan nan nan nan nan nan nan nan nan nan nan nan nan nan nan
nan nan nan nan nan nan nan nan nan nan nan nan nan nan nan nan nan nan nan nan nan nan nan nan nan nan nan nan nan nan nan nan nan nan nan nan nan nan nan nan nan nan nan nan 55 55 52 nan nan 53 nan nan nan nan 48 51 54 55 54 54 55 54 56 57 nan nan nan nan nan nan nan nan nan nan nan nan nan nan nan nan nan nan nan nan nan
nan nan nan nan nan nan nan nan nan nan nan nan nan nan nan nan nan nan nan nan nan nan nan nan nan nan nan nan nan nan nan nan nan nan nan nan nan nan nan nan nan nan nan nan nan nan nan 54 nan nan 54 55 56 nan nan nan 57 56 53 53 53 54 57 60 63 nan nan nan nan nan nan nan nan nan nan nan nan nan nan nan nan nan nan nan nan
nan nan nan nan nan nan nan nan nan nan nan nan nan nan nan nan nan nan nan nan nan nan nan nan nan nan nan nan nan nan nan nan nan nan nan nan nan nan nan nan nan nan nan nan nan nan nan nan 59 nan nan nan nan nan nan nan nan nan nan nan nan nan nan nan nan nan nan nan nan nan nan nan nan nan nan nan nan nan nan nan nan nan nan nan nan
Wind_Direction
275 285 294 295 294 289 284 283 287 282 276 274 286 288 285 284 285 285 275 274 269 259 252 301 281 267 262 268 267 271 270 274 277 278 278 276 277 281 281 281 283 283 285 287 288 287 280 273 278 289 300 299 297 300 303 315 328 310 291 293 286 271 269 255 263 248 251 263 269 273 270 264 282 290 285 287 284 284 277 273 273 276 273 272 272
278 281 288 292 293 292 288 285 287 285 281 288 290 285 280 280 282 285 280 274 273 267 260 279 278 267 271 270 270 272 277 279 278 275 272 276 278 277 276 277 277 279 282 283 285 285 284 288 282 280 283 291 289 291 296 298 299 298 284 287 280 281 261 270 258 271 258 267 273 274 278 267 252 270 287 296 289 293 293 291 285 288 292 282 290
277 280 283 291 296 298 293 285 278 277 281 285 289 288 284 282 282 280 271 271 267 260 243 268 267 265 269 267 270 271 267 271 274 275 277 276 275 275 275 277 280 283 282 277 278 283 281 282 284 286 290 289 290 289 295 299 296 299 297 284 275 303 303 282 281 268 274 271 270 267 264 277 265 249 252 263 274 274 296 301 291 296 293 292 292
279 281 284 290 295 294 292 288 285 291 298 296 295 291 283 282 279 276 270 268 260 238 218 265 263 259 263 267 265 264 268 269 272 273 274 278 278 278 277 275 274 279 279 284 280 273 275 280 281 283 288 291 293 289 289 296 301 302 304 301 303 303 291 285 279 286 280 283 274 270 280 275 285 274 274 288 283 283 275 271 272 nan 272 271 275
278 280 287 292 297 295 294 292 287 292 297 300 295 292 282 283 280 276 271 269 259 241 222 266 266 266 267 264 264 267 271 274 275 276 276 nan nan 285 282 279 282 280 278 272 272 272 272 272 273 281 288 293 297 299 302 297 303 307 308 300 295 267 267 274 273 274 278 276 277 288 286 280 281 289 296 279 246 229 265 264 267 274 265 265 277
273 281 291 295 294 294 293 296 298 297 295 297 293 288 287 282 278 272 258 257 256 242 239 277 274 273 275 273 277 276 274 275 273 nan nan 287 nan nan 286 285 280 278 275 270 261 259 261 264 270 281 286 290 287 292 293 288 287 290 287 283 279 279 268 280 282 277 282 287 289 274 277 278 293 299 291 278 264 305 270 256 nan nan nan nan nan
264 273 287 287 291 295 294 299 302 301 299 297 289 282 282 277 272 266 255 253 247 234 274 279 274 275 277 277 278 275 274 268 267 271 273 nan nan nan 281 283 287 284 276 275 270 266 259 254 256 258 273 290 293 285 282 290 289 283 279 280 273 275 281 277 289 290 287 293 298 298 291 279 284 296 294 285 282 273 nan nan nan nan nan nan nan
248 257 273 283 289 294 299 301 300 298 293 290 276 275 274 269 262 255 251 253 241 248 273 274 270 271 273 275 274 273 270 269 272 267 267 nan nan nan nan 283 288 285 285 276 277 277 270 270 265 262 268 nan nan nan 291 286 283 277 274 269 278 276 281 281 285 295 299 297 295 288 282 292 297 288 285 281 279 nan nan nan nan nan nan nan nan
229 231 261 281 289 292 291 294 285 278 273 268 271 262 247 249 248 244 240 231 220 237 267 266 264 268 269 271 271 266 272 270 267 nan nan nan 271 274 274 275 275 273 273 nan 272 272 275 272 268 267 264 270 nan 283 289 289 286 283 280 275 273 273 273 272 270 279 287 275 289 277 288 294 303 299 288 289 280 nan nan nan nan nan nan nan nan
230 210 251 272 272 278 274 272 265 244 239 238 233 239 239 247 249 236 244 225 203 228 258 255 260 266 266 268 268 268 268 265 264 266 269 274 272 272 274 278 nan nan 283 277 276 276 270 271 273 269 272 271 272 278 280 281 283 285 277 270 268 267 268 271 268 264 263 266 270 290 295 287 292 291 290 283 290 nan nan nan nan nan nan nan nan
254 253 242 251 270 269 265 255 252 260 269 263 258 264 270 272 278 273 269 244 213 228 240 257 263 265 263 269 270 270 267 265 270 277 282 287 287 289 289 289 291 289 291 288 283 nan nan 274 272 275 275 274 277 nan 275 275 278 278 276 270 265 262 268 269 265 265 268 278 293 275 273 276 267 272 286 287 275 nan nan nan nan nan nan nan nan
250 252 254 256 251 257 251 261 268 270 271 266 265 267 276 281 285 285 280 265 250 244 232 218 252 258 269 270 266 267 269 270 277 284 291 294 295 296 293 nan 297 nan 300 297 293 nan nan 283 282 279 276 276 nan nan nan nan nan 272 271 267 264 263 262 273 275 280 281 285 275 278 280 279 290 268 264 279 284 276 285 nan nan nan nan nan nan
246 240 247 257 256 244 264 263 266 273 272 275 275 281 289 293 295 292 283 270 263 265 268 243 205 255 261 266 265 266 271 275 280 287 293 nan nan nan nan nan nan nan 303 299 nan nan nan nan 287 283 281 277 274 nan nan nan nan nan 265 262 258 259 261 263 268 270 273 275 275 278 285 287 281 282 286 275 271 277 nan nan nan nan nan nan nan
239 250 257 258 263 256 263 270 268 272 277 280 283 286 291 295 296 292 285 270 260 262 266 267 256 242 259 261 265 269 273 278 283 291 295 nan nan nan nan nan nan 305 nan nan nan nan nan nan 282 nan 283 283 nan nan nan nan nan nan nan 259 257 253 257 260 269 272 272 272 275 279 281 275 nan nan 271 nan nan nan nan nan nan nan nan nan nan
236 250 253 262 276 281 270 281 275 275 282 284 289 289 288 289 290 290 288 281 274 274 270 267 272 262 266 268 270 272 277 281 287 290 294 nan nan nan nan nan nan nan nan nan nan nan nan nan nan nan nan nan nan nan nan nan nan nan nan nan nan nan nan 261 267 272 nan nan nan nan nan nan nan nan nan nan nan nan nan nan nan nan nan nan nan
255 252 251 266 273 270 281 284 278 277 284 291 294 293 289 285 284 289 292 286 279 275 266 255 254 261 261 269 274 275 277 283 286 289 289 290 nan nan nan nan nan nan nan nan nan nan nan nan nan nan nan nan nan nan nan nan nan nan nan nan nan nan nan nan nan nan nan nan nan nan nan nan nan nan nan nan nan nan nan nan nan nan nan nan nan
254 255 256 265 274 285 289 291 280 280 284 287 290 290 290 288 288 289 290 287 281 273 265 258 256 258 273 275 273 274 279 282 285 286 nan nan nan nan nan nan nan nan nan nan nan nan nan nan nan nan nan nan nan nan nan nan nan nan nan nan nan nan nan nan nan nan nan nan nan nan nan nan nan nan nan nan nan nan nan nan nan nan nan nan nan
265 264 268 269 272 277 279 278 282 284 285 284 282 282 283 283 286 290 292 289 283 277 266 258 256 262 262 268 262 268 274 276 281 286 nan nan nan nan nan nan nan nan nan nan nan nan nan nan nan nan nan nan nan nan nan nan nan nan nan nan nan nan nan nan nan nan nan nan nan nan nan nan nan nan nan nan nan nan nan nan nan nan nan nan nan
268 269 268 267 262 260 266 274 278 282 284 279 277 276 272 272 272 275 283 288 290 280 269 264 264 258 260 250 248 263 266 271 275 279 282 nan nan nan nan nan nan nan nan nan nan nan nan nan nan nan nan nan nan nan nan nan nan nan nan nan nan nan nan nan nan nan nan nan nan nan nan nan nan nan nan nan nan nan nan nan nan nan nan nan nan
265 267 267 268 271 274 274 273 275 279 279 277 272 267 264 264 264 265 269 273 280 277 267 265 263 257 255 262 238 249 269 274 276 279 283 nan nan nan nan nan nan nan nan nan nan nan nan nan nan nan nan nan nan nan nan nan nan nan nan nan nan nan nan nan nan nan nan nan nan nan nan nan nan nan nan nan nan nan nan nan nan nan nan nan nan
261 263 265 267 270 273 273 272 269 267 269 269 272 271 270 270 267 268 273 276 276 274 268 264 264 260 261 260 268 278 285 281 282 283 284 nan nan nan nan nan nan nan nan nan nan nan nan nan nan nan nan nan nan nan nan nan nan nan nan nan nan nan nan nan nan nan nan nan nan nan nan nan nan nan nan nan nan nan nan nan nan nan nan nan nan
256 259 263 263 263 264 266 265 266 264 260 258 263 269 272 269 269 270 270 268 269 269 264 258 252 258 270 273 282 290 286 277 277 279 280 nan nan nan nan nan nan nan nan nan nan nan nan nan nan nan nan nan nan nan nan nan nan nan nan nan nan nan nan nan nan nan nan nan nan nan nan nan nan nan nan nan nan nan nan nan nan nan nan nan nan
255 258 260 262 264 265 265 267 271 271 272 273 271 272 271 270 268 268 269 266 266 268 266 260 257 261 270 273 272 274 273 272 274 273 275 276 nan nan nan nan nan nan nan nan nan nan nan nan nan nan nan nan nan nan nan nan nan nan nan nan nan nan nan nan nan nan nan nan nan nan nan nan nan nan nan nan nan nan nan nan nan nan nan nan nan
254 256 257 258 261 260 260 262 263 268 274 275 272 269 271 272 271 265 260 266 271 271 273 270 264 266 268 266 265 263 263 266 267 265 270 273 275 278 nan nan nan nan nan nan nan nan nan nan nan nan nan nan nan nan nan nan nan nan nan nan nan nan nan nan nan nan nan nan nan nan nan nan nan nan nan nan nan nan nan nan nan nan nan nan nan
251 249 251 258 259 257 258 258 259 262 265 267 269 270 270 272 275 274 271 272 273 274 277 279 276 272 269 266 262 258 259 264 264 263 268 271 273 274 274 nan nan nan 279 nan nan nan nan nan nan nan nan nan nan nan nan nan nan nan nan nan nan nan nan nan nan nan nan nan nan nan nan nan nan nan nan nan nan nan nan nan nan nan nan nan nan
248 252 252 249 250 254 253 254 256 259 261 266 270 273 273 273 272 273 273 273 274 274 278 278 275 273 269 264 259 258 261 265 267 271 275 271 271 274 274 273 275 nan nan 283 nan nan nan nan nan nan nan nan nan nan nan nan nan nan nan nan nan nan nan nan nan nan nan nan nan nan nan nan nan nan nan nan nan nan nan nan nan nan nan nan nan
247 247 248 249 246 246 247 252 255 259 262 264 267 267 270 273 275 276 275 273 273 274 274 274 273 274 271 264 262 262 265 268 270 268 267 273 274 273 273 275 277 281 nan nan nan nan nan nan nan nan nan nan nan nan nan nan nan nan nan nan nan nan nan nan nan nan nan nan nan nan nan nan nan nan nan nan nan nan nan nan nan nan nan nan nan
249 247 248 249 247 245 246 249 254 256 258 260 259 260 264 267 269 271 272 276 278 280 278 273 271 267 264 264 264 265 265 265 267 269 270 272 274 275 276 274 277 282 282 285 nan nan nan nan nan nan nan nan nan nan nan nan nan nan nan nan nan nan 299 295 289 nan nan nan nan nan nan nan nan nan nan nan nan nan nan nan nan nan nan nan nan
nan 252 251 nan nan 250 254 255 254 255 257 260 263 264 264 266 268 268 269 271 274 278 276 272 269 263 259 259 261 261 260 261 265 269 270 277 274 277 279 277 278 279 279 281 281 nan 284 nan nan nan nan nan nan nan nan nan nan nan 299 298 298 298 300 302 299 294 285 278 277 279 280 281 282 nan nan nan 264 nan 269 nan nan nan nan nan nan
nan nan nan nan nan nan nan nan nan nan nan nan nan nan 265 265 264 263 265 266 267 267 267 268 266 263 261 260 260 260 260 260 260 266 273 275 279 281 280 280 280 279 278 nan nan 283 286 287 nan nan nan 288 289 290 286 nan 292 296 297 295 293 295 296 298 301 299 292 284 276 274 276 276 nan nan nan nan nan nan nan nan nan nan nan nan nan
nan nan nan nan nan nan nan nan nan nan nan nan nan nan nan nan nan 260 260 261 261 261 261 262 263 260 260 260 260 261 263 265 266 263 267 278 282 278 278 277 276 277 272 270 274 284 285 286 289 290 291 289 287 281 280 278 277 286 294 294 294 292 290 290 293 295 293 286 268 254 253 252 254 nan nan 274 nan nan nan nan nan nan nan nan nan
nan nan nan nan nan nan nan nan nan nan nan nan nan nan nan nan nan nan nan nan 259 259 258 257 258 260 259 260 260 260 262 264 267 270 272 270 269 271 272 273 273 274 275 275 279 283 284 283 282 285 289 286 284 278 284 282 282 283 282 289 292 291 289 286 285 287 287 288 282 268 263 267 271 274 277 nan nan nan nan nan nan nan nan nan nan
nan nan nan nan nan nan nan nan nan nan nan nan nan nan nan nan nan nan nan nan nan nan nan nan 255 255 256 256 259 261 261 262 261 265 266 267 269 271 271 272 275 274 276 283 281 272 275 282 283 284 284 286 284 285 286 285 285 287 285 279 288 289 289 287 283 281 275 272 275 274 273 270 271 278 281 276 nan 267 nan nan nan nan nan nan nan
249 247 246 nan nan nan nan nan nan nan nan nan nan nan nan nan nan nan nan nan nan nan nan nan nan nan nan nan 256 257 256 260 263 263 262 264 265 265 266 267 268 270 273 270 276 284 282 281 283 284 283 280 280 286 287 nan nan 285 nan nan 285 286 288 287 283 276 271 270 270 269 265 264 265 273 272 268 271 272 273 273 275 276 275 nan nan
248 247 246 244 244 243 nan nan nan nan nan nan nan nan nan nan nan nan nan nan nan nan nan nan nan nan nan nan nan nan nan 259 258 260 262 262 262 263 266 267 268 269 270 273 271 275 277 269 269 271 273 273 271 280 288 290 289 nan nan nan nan 282 282 281 280 279 275 272 273 271 270 266 267 274 272 270 279 282 284 282 nan nan nan nan nan
248 248 248 247 nan 248 249 nan nan nan nan nan nan nan nan nan nan nan nan nan nan nan nan nan nan nan nan nan nan nan nan nan nan 261 262 263 265 267 269 270 270 270 272 272 273 272 272 278 275 274 272 276 279 290 290 288 286 288 nan nan nan 282 281 279 277 278 274 271 270 274 271 267 268 270 268 271 280 285 nan nan nan nan nan nan nan
249 250 251 nan nan nan nan nan nan nan nan nan nan nan nan nan nan nan nan nan nan nan nan nan nan nan nan nan nan nan nan nan nan nan nan 266 269 271 274 274 274 274 272 274 275 274 274 280 282 278 277 278 282 287 290 287 287 289 285 nan nan 281 279 279 279 nan nan nan nan nan 259 265 266 264 268 274 277 282 279 nan nan nan nan nan nan
nan nan nan nan nan nan nan nan nan nan nan nan nan nan nan nan nan nan nan nan nan nan nan nan nan nan nan nan nan nan nan nan nan nan nan nan nan 272 272 274 275 274 274 273 271 271 271 273 276 276 278 280 283 284 288 288 289 291 288 284 nan nan 278 277 nan nan nan nan nan nan nan 265 262 261 nan 274 278 nan nan nan nan nan nan nan nan
nan nan nan nan nan nan nan nan nan nan nan nan nan nan nan nan nan nan nan nan nan nan nan nan nan nan nan nan nan nan nan nan nan nan nan nan nan 270 271 271 273 275 275 274 273 272 272 273 274 277 277 275 276 279 285 287 288 289 285 280 279 nan nan nan nan nan nan nan nan nan nan nan nan nan nan nan nan nan nan nan nan nan nan nan nan
nan nan nan nan nan nan nan nan nan nan nan nan nan nan nan nan nan nan nan nan nan nan nan nan nan nan nan nan nan nan nan nan nan nan nan nan nan nan 270 272 272 273 274 275 276 275 275 273 273 277 277 279 278 276 280 285 287 286 286 278 276 nan 272 nan nan nan nan nan nan nan nan nan nan nan nan nan nan nan nan nan nan nan nan nan nan
nan nan nan nan nan nan nan nan nan nan nan nan nan nan nan nan nan nan nan nan nan nan nan nan nan nan nan nan nan nan nan nan nan nan nan nan nan nan nan nan 273 275 275 nan 276 277 276 276 276 277 276 277 276 278 278 284 284 284 283 274 270 nan 274 nan nan nan nan nan nan nan nan nan nan nan nan nan nan nan nan nan nan nan nan nan nan
nan nan nan nan nan nan nan nan nan nan nan nan nan nan nan nan nan nan nan nan nan nan nan nan nan nan nan nan nan nan nan nan nan nan nan nan nan nan nan nan nan 278 278 nan nan 278 278 279 279 278 276 276 275 276 275 278 279 279 275 nan nan nan nan nan nan nan nan nan nan nan nan nan nan nan nan nan nan nan nan nan nan nan nan nan nan
nan nan nan nan nan nan nan nan nan nan nan nan nan nan nan nan nan nan nan nan nan nan nan nan nan nan nan nan nan nan nan nan nan nan nan nan nan nan nan nan 279 280 280 280 nan 280 279 279 279 278 278 279 277 273 275 274 275 271 265 263 nan 261 nan 267 nan nan nan nan nan nan nan nan nan nan nan nan nan nan nan nan nan nan nan nan nan
nan nan nan nan nan nan nan nan nan nan nan nan nan nan nan nan nan nan nan nan nan nan nan nan nan nan nan nan nan nan nan nan nan nan nan nan nan nan nan nan nan 278 279 279 279 280 280 277 273 276 276 277 275 275 273 272 268 264 261 258 nan nan nan nan nan nan nan nan nan nan nan nan nan nan nan nan nan nan nan nan nan nan nan nan nan
nan nan nan nan nan nan nan nan nan nan nan nan nan nan nan nan nan nan nan nan nan nan nan nan nan nan nan nan nan nan nan nan nan nan nan nan nan nan nan nan nan nan 277 279 277 278 279 277 276 272 271 270 270 269 269 264 264 260 256 nan nan nan nan nan 261 nan nan nan nan nan nan nan nan nan nan nan nan nan nan nan nan nan nan nan nan
nan nan nan nan nan nan nan nan nan nan nan nan nan nan nan nan nan nan nan nan nan nan nan nan nan nan nan nan nan nan nan nan nan nan nan nan nan nan nan nan nan nan nan 273 276 274 nan 276 274 nan 267 267 266 nan nan 264 264 262 257 nan nan nan nan nan nan nan nan nan nan nan nan nan nan nan nan nan nan nan nan nan nan nan nan nan nan
nan nan nan nan nan nan nan nan nan nan nan nan nan nan nan nan nan nan nan nan nan nan nan nan nan nan nan nan nan nan nan nan nan nan nan nan nan nan nan nan nan nan nan nan 271 273 269 265 nan nan nan nan 266 264 262 264 264 262 261 261 260 nan nan nan nan nan nan nan nan nan nan nan nan nan nan nan nan nan nan nan nan nan nan nan nan
nan nan nan nan nan nan nan nan nan nan nan nan nan nan nan nan nan nan nan nan nan nan nan nan nan nan nan nan nan nan nan nan nan nan nan nan nan nan nan nan nan nan nan nan 265 nan nan 267 nan nan nan nan nan nan nan 265 265 263 263 263 261 260 259 nan nan nan nan nan nan nan nan nan nan nan nan nan nan nan nan nan nan nan nan nan nan
nan nan nan nan nan nan nan nan nan nan nan nan nan nan nan nan nan nan nan nan nan nan nan nan nan nan nan nan nan nan nan nan nan nan nan nan nan nan nan nan nan nan nan nan 267 262 255 nan nan 254 nan nan nan nan 261 265 266 265 263 264 264 263 261 260 nan nan nan nan nan nan nan nan nan nan nan nan nan nan nan nan nan nan nan nan nan
nan nan nan nan nan nan nan nan nan nan nan nan nan nan nan nan nan nan nan nan nan nan nan nan nan nan nan nan nan nan nan nan nan nan nan nan nan nan nan nan nan nan nan nan nan nan nan 254 nan nan 247 249 250 nan nan nan 262 263 263 264 266 266 263 264 265 nan nan nan nan nan nan nan nan nan nan nan nan nan nan nan nan nan nan nan nan
nan nan nan nan nan nan nan nan nan nan nan nan nan nan nan nan nan nan nan nan nan nan nan nan nan nan nan nan nan nan nan nan nan nan nan nan nan nan nan nan nan nan nan nan nan nan nan nan 251 nan nan nan nan nan nan nan nan nan nan nan nan nan nan nan nan nan nan nan nan nan nan nan nan nan nan nan nan nan nan nan nan nan nan nan nan